Flag for U.S.A. Weather past 2 weeks in Santa Rosa, California, U.S.A.

Now
61 °F

Sunny.


Feels Like: 61 °F
Forecast: 47 / 75 °F
Wind: No wind

Location: Santa Rosa Sonoma County Airport


UV Index: 5 (Moderate)

Visibility: 10 mi


Pressure: 30.03 "Hg

Humidity: 72%

Dew point: 52 °F

Location of Santa RosaLocation

Historic Weather in Santa Rosa

°F

Santa Rosa temperature yesterday

Maximum temperature yesterday: 71 °F (at 12:53 PM)
Minimum temperature yesterday: 47 °F (at 6:53 AM)
Average temperature yesterday: 58 °F

Past Weeks' High & Low Weather Summary

 TemperatureHumidityPressure
High84 °F (Apr 7, 3:53 PM)100% (Apr 5, 3:53 AM)30.21 "Hg (Apr 5, 3:53 AM)
Low40 °F (Apr 5, 6:01 AM)23% (Apr 7, 3:53 PM)29.76 "Hg (Apr 17, 3:53 PM)
Average58 °F76%29.97 "Hg
* Reported Apr 4 7:53 PM — Apr 19 7:53 PM, Santa Rosa, Weather by CustomWeather, © 2014

Note: Actual official high and low records may vary slightly from our data, if they occured in-between our weather recording intervals... More about our weather records

Advertising

Historic Weather Conditions — Data for Previous 24 hours

 ConditionsComfort  
Time TempWeatherWind HumidityBarometerVisibility
7:53 PM
Apr 19
61 °FSunny.No wind72%30.03 "Hg10 mi
6:53 PM66 °FScattered clouds.7 mph65%30.02 "Hg10 mi
5:53 PM69 °FPassing clouds.10 mph55%30.01 "Hg10 mi
4:53 PM71 °FPassing clouds.13 mph51%30.00 "Hg10 mi
3:53 PM71 °FPassing clouds.10 mph49%30.01 "Hg10 mi
2:53 PM71 °FPassing clouds.12 mph44%30.01 "Hg10 mi
1:53 PM70 °FScattered clouds.6 mph42%30.02 "Hg10 mi
12:53 PM68 °FScattered clouds.8 mph36%30.03 "Hg10 mi
11:53 AM64 °FSunny.7 mph50%30.04 "Hg10 mi
10:53 AM58 °FScattered clouds.5 mph58%30.03 "Hg10 mi
9:53 AM52 °FScattered clouds.No wind77%30.02 "Hg10 mi
8:53 AM46 °FFog.3 mph96%30.02 "Hg1 mi
8:04 AM45 °FFog.No wind100%30.02 "Hg1 mi
7:02 AM46 °FFog.No wind96%29.99 "Hg3 mi
6:53 AM45 °FFog.No wind100%29.96 "Hg1 mi
5:53 AM45 °FFog.3 mph100%29.95 "Hg4 mi
4:53 AM46 °FLow clouds.No wind96%29.94 "Hg7 mi
3:53 AM42 °FLow clouds.3 mph96%29.94 "Hg9 mi
2:53 AM45 °FClear.No wind93%29.93 "Hg10 mi
1:53 AM45 °FClear.No wind93%29.92 "Hg9 mi
12:53 AM45 °FClear.No wind93%29.91 "Hg10 mi
11:53 PM
Apr 18
48 °FClear.3 mph86%29.90 "Hg10 mi
10:53 PM49 °FClear.6 mph86%29.89 "Hg10 mi
9:53 PM52 °FClear.3 mph80%29.88 "Hg10 mi
8:53 PM55 °FClear.No wind74%29.86 "Hg10 mi
Weather by CustomWeather, © 2014

See weather overview